カタログに戻る

STARLINK-34402

運用中通信VLEO
NORAD 64446·PAYLOAD·🇺🇸 United States

打ち上げ Jun 18, 2025 から Cape Canaveral Space Force Station

Loading…

次のパス (今後24時間)

TLE

最新Source: CelesTrak SupGP

元期: Sep 15, 2026, 03:50 UTC

1 64446C 25130J   26258.16020833 -.00006728  00000+0 -19873-3 0  2584
2 64446  53.1561 286.3685 0001198  99.0728 183.5416 15.34401185    10

AllMySatでSTARLINK-34402をリアルタイム追跡

Download on the App Store